Location: Vinland
(47.7731°N, 122.6974°W)
Time: 15:30:55
(UTC+00:00)

Tiros 1 despin weight - Visible Passes

Search period start: 31 March 2023 00:00
Search period end: 10 April 2023 00:00
Orbit: 588 x 634 km, 48.2° (Epoch: 29 March)

Date Brightness Start Highest point End Pass type
(mag) Time Alt. Az. Time Alt. Az. Time Alt. Az.
31 Mar ? 04:36:26 10° WSW 04:40:49 85° SSE 04:41:54 51° E visible
31 Mar ? 06:17:51 10° W 06:18:50 16° W 06:18:50 16° W visible
01 Apr ? 03:09:28 10° SW 03:13:43 52° SSE 03:18:00 10° E visible
01 Apr ? 04:50:38 10° W 04:55:02 85° N 04:55:39 65° ENE visible
01 Apr ? 06:32:03 10° W 06:32:34 13° W 06:32:34 13° W visible
02 Apr ? 03:23:28 10° WSW 03:27:50 72° SSE 03:32:13 10° E visible
02 Apr ? 05:04:50 10° W 05:09:14 84° N 05:09:18 84° NNE visible
03 Apr ? 03:37:35 10° W 03:41:59 88° SSE 03:45:59 12° E visible
03 Apr ? 05:19:02 10° W 05:22:53 68° W 05:22:53 68° W visible
04 Apr ? 03:51:46 10° W 03:56:10 84° N 03:59:31 17° E visible
04 Apr ? 05:33:12 10° W 05:36:26 47° W 05:36:26 47° W visible
05 Apr ? 04:05:57 10° W 04:10:21 86° N 04:13:02 23° E visible
05 Apr ? 05:47:22 10° W 05:49:55 32° W 05:49:55 32° W visible
06 Apr ? 04:20:06 10° W 04:24:30 84° SSW 04:26:30 32° ESE visible
06 Apr ? 06:01:38 10° W 06:03:24 21° W 06:03:24 21° W visible
07 Apr ? 04:34:15 10° W 04:38:35 66° SSW 04:39:59 40° SE visible
07 Apr ? 06:16:05 10° W 06:16:53 14° W 06:16:53 14° W visible
08 Apr ? 04:48:24 10° W 04:52:37 46° SSW 04:53:28 40° S visible
09 Apr ? 03:21:06 10° W 03:25:29 80° SSW 03:29:52 10° ESE visible
09 Apr ? 05:02:40 10° W 05:06:32 30° SSW 05:06:57 30° SSW visible
